Time,TemperatureF,DewpointF,PressureIn,WindDirection,WindDirectionDegrees,WindSpeedMPH,WindSpeedGustMPH,Humidity,HourlyPrecipIn,Conditions,Clouds,dailyrainin,SolarRadiationWatts/m^2,SoftwareType,DateUTC
2013-07-30 00:00:00,80.0,72.0,-100.00,South,181,2.0,-999.0,77,0.00,,,0.00,1.000000,,2013-07-30 05:00:00,
2013-07-30 00:45:00,80.0,72.0,-100.00,South,181,2.0,-999.0,77,0.00,,,0.00,1.000000,,2013-07-30 05:45:00,
2013-07-30 00:53:00,80.0,72.0,-100.00,South,181,2.0,-999.0,77,0.00,,,0.00,1.000000,,2013-07-30 05:53:00,
2013-07-30 01:00:00,79.0,71.0,-100.00,South,190,2.0,-999.0,77,0.00,,,0.00,1.000000,,2013-07-30 06:00:00,
2013-07-30 01:43:00,79.0,71.0,-100.00,South,190,2.0,-999.0,77,0.00,,,0.00,1.000000,,2013-07-30 06:43:00,
2013-07-30 01:53:00,79.0,71.0,-100.00,South,190,2.0,-999.0,77,0.00,,,0.00,1.000000,,2013-07-30 06:53:00,
2013-07-30 02:00:00,78.0,71.0,-100.00,South,183,2.0,-999.0,78,0.00,,,0.00,1.000000,,2013-07-30 07:00:00,
2013-07-30 02:43:00,78.0,71.0,-100.00,South,183,2.0,-999.0,78,0.00,,,0.00,1.000000,,2013-07-30 07:43:00,
2013-07-30 02:53:00,78.0,71.0,-100.00,South,183,2.0,-999.0,78,0.00,,,0.00,1.000000,,2013-07-30 07:53:00,
2013-07-30 03:00:00,78.0,70.0,-100.00,South,190,3.0,-999.0,77,0.00,,,0.00,1.000000,,2013-07-30 08:00:00,
2013-07-30 03:43:00,78.0,70.0,-100.00,South,190,3.0,-999.0,77,0.00,,,0.00,1.000000,,2013-07-30 08:43:00,
2013-07-30 03:53:00,78.0,70.0,-100.00,South,190,3.0,-999.0,77,0.00,,,0.00,1.000000,,2013-07-30 08:53:00,
2013-07-30 04:00:00,77.0,71.0,-100.00,SW,215,2.0,-999.0,83,0.00,,,-99.99,1.000000,,2013-07-30 09:00:00,
2013-07-30 04:43:00,77.0,71.0,-100.00,SW,215,2.0,-999.0,83,0.00,,,-99.99,1.000000,,2013-07-30 09:43:00,
2013-07-30 04:53:00,77.0,71.0,-100.00,SW,215,2.0,-999.0,83,0.00,,,-99.99,1.000000,,2013-07-30 09:53:00,
2013-07-30 05:00:00,76.0,72.0,-100.00,South,184,0.0,-999.0,87,0.00,,,0.00,1.000000,,2013-07-30 10:00:00,
2013-07-30 05:44:00,76.0,72.0,-100.00,South,184,0.0,-999.0,87,0.00,,,0.00,1.000000,,2013-07-30 10:44:00,
2013-07-30 05:52:00,76.0,72.0,-100.00,South,184,0.0,-999.0,87,0.00,,,0.00,1.000000,,2013-07-30 10:52:00,
2013-07-30 06:43:00,76.0,72.0,-100.00,SSE,159,0.0,-999.0,85,0.00,,,0.00,1.000000,,2013-07-30 11:43:00,
2013-07-30 06:53:00,76.0,72.0,-100.00,SSE,159,0.0,-999.0,85,0.00,,,0.00,1.000000,,2013-07-30 11:53:00,
2013-07-30 07:00:00,74.0,72.0,-100.00,SSE,162,1.0,-999.0,93,0.00,,,0.00,6.000000,,2013-07-30 12:00:00,
2013-07-30 07:42:00,74.0,72.0,-100.00,SSE,162,1.0,-999.0,93,0.00,,,0.00,6.000000,,2013-07-30 12:42:00,
2013-07-30 07:53:00,74.0,72.0,-100.00,SSE,162,1.0,-999.0,93,0.00,,,0.00,6.000000,,2013-07-30 12:53:00,
2013-07-30 08:00:00,75.0,72.0,-100.00,SSW,208,1.0,-999.0,90,0.00,,,0.00,56.000000,,2013-07-30 13:00:00,
2013-07-30 08:43:00,75.0,72.0,-100.00,SSW,208,1.0,-999.0,90,0.00,,,0.00,56.000000,,2013-07-30 13:43:00,
2013-07-30 08:52:00,75.0,72.0,-100.00,SSW,208,1.0,-999.0,90,0.00,,,0.00,56.000000,,2013-07-30 13:52:00,
2013-07-30 09:00:00,76.0,71.0,-100.00,South,183,2.0,-999.0,84,0.00,,,0.00,109.000000,,2013-07-30 14:00:00,
2013-07-30 09:43:00,76.0,71.0,-100.00,South,183,2.0,-999.0,84,0.00,,,0.00,109.000000,,2013-07-30 14:43:00,
2013-07-30 09:53:00,76.0,71.0,-100.00,South,183,2.0,-999.0,84,0.00,,,0.00,109.000000,,2013-07-30 14:53:00,
2013-07-30 10:00:00,78.0,71.0,-100.00,SSW,192,2.0,-999.0,79,0.00,,,0.00,187.000000,,2013-07-30 15:00:00,
2013-07-30 10:43:00,78.0,71.0,-100.00,SSW,192,2.0,-999.0,79,0.00,,,0.00,187.000000,,2013-07-30 15:43:00,
2013-07-30 10:53:00,78.0,71.0,-100.00,SSW,192,2.0,-999.0,79,0.00,,,0.00,187.000000,,2013-07-30 15:53:00,
2013-07-30 11:00:00,80.0,72.0,-100.00,SSW,197,2.0,-999.0,77,0.00,,,0.00,287.000000,,2013-07-30 16:00:00,
2013-07-30 11:44:00,80.0,72.0,-100.00,SSW,197,2.0,-999.0,77,0.00,,,0.00,287.000000,,2013-07-30 16:44:00,
2013-07-30 11:52:00,80.0,72.0,-100.00,SSW,197,2.0,-999.0,77,0.00,,,0.00,287.000000,,2013-07-30 16:52:00,
2013-07-30 12:00:00,80.0,71.0,-100.00,South,185,2.0,-999.0,75,0.00,,,0.00,193.000000,,2013-07-30 17:00:00,
2013-07-30 12:43:00,80.0,71.0,-100.00,South,185,2.0,-999.0,75,0.00,,,0.00,193.000000,,2013-07-30 17:43:00,
2013-07-30 12:54:00,80.0,71.0,-100.00,South,185,2.0,-999.0,75,0.00,,,0.00,193.000000,,2013-07-30 17:54:00,
2013-07-30 13:00:00,81.0,72.0,-100.00,SSW,201,1.0,-999.0,74,0.00,,,0.00,288.000000,,2013-07-30 18:00:00,
2013-07-30 13:43:00,81.0,72.0,-100.00,SSW,201,1.0,-999.0,74,0.00,,,0.00,288.000000,,2013-07-30 18:43:00,
2013-07-30 13:52:00,81.0,72.0,-100.00,SSW,201,1.0,-999.0,74,0.00,,,0.00,288.000000,,2013-07-30 18:52:00,
2013-07-30 14:00:00,84.0,73.0,-100.00,South,183,1.0,-999.0,70,0.00,,,0.00,340.000000,,2013-07-30 19:00:00,
2013-07-30 14:44:00,84.0,73.0,-100.00,South,183,1.0,-999.0,70,0.00,,,0.00,340.000000,,2013-07-30 19:44:00,
2013-07-30 14:52:00,84.0,73.0,-100.00,South,183,1.0,-999.0,70,0.00,,,0.00,340.000000,,2013-07-30 19:52:00,
2013-07-30 15:00:00,85.0,71.0,-100.00,SSW,197,2.0,-999.0,62,0.00,,,0.00,371.000000,,2013-07-30 20:00:00,
2013-07-30 15:33:00,85.0,71.0,-100.00,SSW,197,2.0,-999.0,62,0.00,,,0.00,371.000000,,2013-07-30 20:33:00,
2013-07-30 15:43:00,85.0,71.0,-100.00,SSW,197,2.0,-999.0,62,0.00,,,0.00,371.000000,,2013-07-30 20:43:00,
2013-07-30 15:52:00,85.0,71.0,-100.00,SSW,197,2.0,-999.0,62,0.00,,,0.00,371.000000,,2013-07-30 20:52:00,
2013-07-30 18:00:00,89.0,74.0,-100.00,South,190,1.0,-999.0,61,-99.99,,,0.00,376.000000,,2013-07-30 23:00:00,
2013-07-30 18:32:00,89.0,74.0,-100.00,South,190,1.0,-999.0,61,-99.99,,,0.00,376.000000,,2013-07-30 23:32:00,
2013-07-30 18:42:00,89.0,74.0,-100.00,South,190,1.0,-999.0,61,-99.99,,,0.00,376.000000,,2013-07-30 23:42:00,
2013-07-30 18:53:00,89.0,74.0,-100.00,South,190,1.0,-999.0,61,-99.99,,,0.00,376.000000,,2013-07-30 23:53:00,
2013-07-30 19:00:00,86.0,74.0,-100.00,SSE,161,0.0,-999.0,68,0.00,,,0.00,75.000000,,2013-07-31 00:00:00,
2013-07-30 19:43:00,86.0,74.0,-100.00,SSE,161,0.0,-999.0,68,0.00,,,0.00,75.000000,,2013-07-31 00:43:00,
2013-07-30 19:53:00,86.0,74.0,-100.00,SSE,161,0.0,-999.0,68,0.00,,,0.00,75.000000,,2013-07-31 00:53:00,
2013-07-30 20:00:00,83.0,75.0,-100.00,SSW,203,0.0,-999.0,77,0.00,,,0.00,25.000000,,2013-07-31 01:00:00,
2013-07-30 20:43:00,83.0,75.0,-100.00,SSW,203,0.0,-999.0,77,0.00,,,0.00,25.000000,,2013-07-31 01:43:00,
2013-07-30 20:52:00,83.0,75.0,-100.00,SSW,203,0.0,-999.0,77,0.00,,,0.00,25.000000,,2013-07-31 01:52:00,
2013-07-30 21:00:00,80.0,74.0,-100.00,SSW,204,0.0,-999.0,83,0.00,,,0.00,1.000000,,2013-07-31 02:00:00,
2013-07-30 21:32:00,80.0,74.0,-100.00,SSW,204,0.0,-999.0,83,0.00,,,0.00,1.000000,,2013-07-31 02:32:00,
2013-07-30 21:43:00,80.0,74.0,-100.00,SSW,204,0.0,-999.0,83,0.00,,,0.00,1.000000,,2013-07-31 02:43:00,
2013-07-30 21:52:00,80.0,74.0,-100.00,SSW,204,0.0,-999.0,83,0.00,,,0.00,1.000000,,2013-07-31 02:52:00,
2013-07-30 22:00:00,79.0,74.0,-100.00,SSW,205,0.0,-999.0,85,0.00,,,0.00,1.000000,,2013-07-31 03:00:00,
2013-07-30 22:42:00,79.0,74.0,-100.00,SSW,205,0.0,-999.0,85,0.00,,,0.00,1.000000,,2013-07-31 03:42:00,
2013-07-30 22:52:00,79.0,74.0,-100.00,SSW,205,0.0,-999.0,85,0.00,,,0.00,1.000000,,2013-07-31 03:52:00,
2013-07-30 23:00:00,78.0,73.0,-100.00,South,180,0.0,-999.0,85,0.00,,,0.00,1.000000,,2013-07-31 04:00:00,
2013-07-30 23:32:00,78.0,73.0,-100.00,South,180,0.0,-999.0,85,0.00,,,0.00,1.000000,,2013-07-31 04:32:00,
2013-07-30 23:42:00,78.0,73.0,-100.00,South,180,0.0,-999.0,85,0.00,,,0.00,1.000000,,2013-07-31 04:42:00,
2013-07-30 23:52:00,78.0,73.0,-100.00,South,180,0.0,-999.0,85,0.00,,,0.00,1.000000,,2013-07-31 04:52:00,